Temperature
2 2 2 1 1 1 1 1 2 3 3 4 3 3 3 2 2 2 2 2 2 2 2 2 3 4 5 6 7 8 9 9 10 10 11 11 11 11 11 11 12 12 11 11
1 2 2 2 2 2 2 2 2 2 3 3 3 3 2 2 2 2 2 1 1 1 1 2 2 3 4 6 7 7 8 9 9 10 10 11 11 11 11 11 11 11 11 11
1 2 1 1 2 2 2 2 2 2 3 3 3 3 2 2 1 1 1 1 1 1 1 1 2 3 4 5 6 7 7 8 9 9 10 11 11 11 11 11 11 11 11 11
0 1 -0 3 3 2 2 2 2 2 2 3 2 2 2 1 1 1 1 1 0 0 1 1 2 2 3 4 5 6 7 7 8 9 9 10 10 10 11 11 11 11 11 11
-0 0 1 3 3 2 1 1 2 2 2 2 2 2 2 2 1 1 0 0 0 0 1 1 2 2 3 4 5 6 6 7 8 8 9 9 10 10 10 10 10 10 10 10
-1 -1 0 3 3 2 1 1 2 2 2 2 1 2 3 1 0 0 0 -0 0 0 1 1 2 2 3 4 4 5 6 7 7 8 8 9 9 10 10 10 10 10 10 10
-1 -1 1 3 2 1 1 2 2 1 1 1 1 1 1 -0 -0 -0 -0 -0 -0 0 0 1 1 2 2 3 4 4 5 6 7 8 8 9 9 9 9 9 9 9 10 10
-1 -1 0 2 1 1 2 2 1 1 1 0 0 -0 -0 -1 -1 -1 -1 -1 -0 -0 0 1 1 1 2 3 4 4 5 6 6 7 8 8 9 9 9 9 9 9 9 9
0 1 3 1 1 1 0 0 0 0 -0 -0 -1 -1 -1 -1 -1 -1 -1 -1 -1 -0 0 1 1 1 2 2 3 4 4 5 6 7 7 8 8 8 8 8 9 9 9 9
-1 1 1 0 0 -0 -0 -0 -1 -1 -1 -1 -1 -1 -1 -1 -1 -1 -1 -1 -1 -1 -0 0 1 1 2 2 3 3 4 4 5 6 6 7 7 8 8 8 8 8 8 8
-1 1 1 0 -0 -0 -1 -1 -1 -2 -2 -2 -2 -2 -2 -2 -2 -2 -2 -1 -1 -1 -1 -0 0 1 2 2 3 3 3 4 4 5 6 6 7 7 7 8 8 8 9 9
0 1 0 1 -0 -1 -1 -2 -2 -2 -2 -2 -3 -3 -2 -2 -2 -2 -2 -2 -2 -2 -1 -1 -0 1 1 2 2 2 3 3 4 4 5 5 6 6 7 7 8 8 8 8
-0 -0 -1 -1 -1 -2 -2 -2 -3 -3 -3 -3 -3 -3 -3 -3 -3 -3 -3 -3 -2 -2 -2 -1 -1 -0 1 1 2 2 2 3 3 4 4 5 5 5 6 6 7 7 7 7
-2 -2 -2 -2 -2 -3 -3 -3 -3 -3 -3 -3 -4 -4 -4 -4 -3 -3 -3 -3 -3 -3 -2 -2 -1 -1 0 0 1 2 2 3 3 3 3 4 4 5 5 5 6 6 6 7
-3 -3 -3 -3 -3 -3 -4 -4 -4 -4 -4 -4 -4 -4 -4 -4 -4 -4 -4 -3 -3 -3 -3 -2 -2 -1 -1 -0 0 1 1 2 3 3 3 3 4 4 4 5 5 5 5 6
-3 -3 -4 -4 -4 -4 -4 -5 -5 -5 -5 -5 -5 -5 -5 -4 -4 -4 -4 -4 -4 -4 -3 -3 -2 -2 -2 -1 -0 0 1 1 2 2 2 3 3 4 4 4 4 4 5 5
-4 -4 -5 -5 -5 -5 -5 -5 -5 -5 -5 -5 -5 -5 -5 -5 -5 -4 -4 -4 -4 -4 -4 -3 -3 -3 -2 -2 -1 -1 -0 1 1 1 2 2 3 3 3 4 4 4 4 4
-4 -4 -5 -5 -5 -5 -6 -6 -6 -6 -6 -6 -6 -6 -6 -6 -5 -5 -5 -5 -4 -4 -4 -4 -3 -3 -3 -2 -2 -1 -1 -0 1 1 1 2 2 3 3 3 3 3 4 4
-5 -5 -5 -6 -6 -6 -6 -6 -6 -6 -6 -6 -6 -6 -6 -6 -6 -6 -5 -5 -5 -4 -4 -4 -4 -4 -3 -3 -2 -2 -1 -1 -0 0 1 1 2 2 2 2 2 3 3 3
-6 -6 -6 -6 -6 -6 -7 -7 -7 -7 -7 -7 -7 -7 -6 -6 -6 -6 -6 -6 -5 -5 -5 -4 -4 -4 -3 -3 -3 -2 -2 -1 -1 -0 0 0 1 1 2 2 2 2 2 3
-6 -6 -6 -7 -7 -7 -7 -7 -7 -7 -7 -7 -7 -7 -7 -7 -7 -7 -7 -6 -5 -5 -5 -5 -4 -4 -4 -3 -3 -2 -2 -2 -1 -1 -0 -0 0 0 1 1 2 2 2 2
-7 -7 -7 -7 -7 -7 -7 -7 -7 -7 -7 -7 -7 -7 -7 -7 -7 -7 -7 -6 -6 -5 -5 -5 -5 -4 -4 -4 -3 -3 -2 -2 -2 -1 -1 -0 -0 0 0 1 1 1 1 1
-7 -7 -7 -7 -8 -8 -8 -8 -8 -8 -8 -8 -8 -8 -8 -8 -8 -7 -7 -6 -6 -6 -6 -5 -5 -4 -4 -4 -4 -3 -3 -2 -2 -1 -1 -1 -1 -0 -0 0 0 1 1 1
-7 -8 -8 -8 -8 -8 -8 -8 -8 -8 -8 -8 -8 -8 -8 -8 -8 -7 -7 -7 -6 -6 -6 -5 -5 -5 -4 -4 -4 -3 -3 -3 -2 -2 -1 -1 -1 -1 -1 -0 -0 0 0 1
-8 -8 -8 -9 -9 -9 -9 -9 -9 -9 -9 -9 -8 -8 -8 -8 -8 -7 -7 -7 -7 -6 -6 -6 -5 -5 -5 -4 -4 -4 -3 -3 -2 -2 -2 -1 -1 -1 -1 -1 -0 -0 -0 0
-9 -9 -9 -9 -9 -9 -9 -9 -9 -9 -9 -9 -9 -9 -8 -8 -8 -8 -7 -7 -7 -7 -6 -6 -6 -5 -5 -4 -4 -4 -3 -3 -3 -2 -2 -2 -2 -2 -2 -1 -1 -1 -1 -0
-9 -9 -9 -10 -10 -10 -10 -10 -10 -10 -10 -10 -9 -9 -9 -9 -8 -8 -8 -7 -7 -7 -7 -6 -6 -5 -5 -5 -4 -4 -4 -3 -3 -3 -2 -2 -2 -2 -2 -1 -1 -1 -1 -1
Wind_Speed
16 17 16 17 17 14 12 13 12 14 16 15 14 15 14 14 13 13 12 12 13 13 12 11 11 10 8 7 6 5 6 8 9 10 12 13 14 15 15 16 16 16 16 16
14 14 15 18 18 16 15 14 15 17 16 13 14 13 12 12 12 12 13 13 13 13 13 12 11 10 9 8 7 6 6 7 8 9 9 11 13 13 14 15 16 16 16 16
10 10 12 13 12 12 11 11 11 13 12 13 13 13 12 11 11 11 13 13 13 13 13 13 11 10 10 9 7 6 6 6 7 8 9 10 10 13 13 14 15 16 16 16
7 8 10 6 3 7 10 12 11 11 11 12 13 13 12 9 10 12 12 12 13 12 13 13 12 11 9 8 7 6 5 5 6 7 8 9 10 12 12 12 13 14 15 16
5 8 12 10 7 6 8 10 10 10 11 12 11 11 8 7 9 10 11 11 11 12 12 12 12 11 10 9 8 6 5 5 4 6 8 8 10 11 10 10 11 12 13 14
7 8 8 6 3 2 4 8 6 7 9 10 9 8 8 9 11 12 12 11 11 12 12 11 11 10 10 8 8 7 6 6 5 5 7 9 10 10 9 10 10 10 10 11
13 11 11 7 3 4 6 5 2 5 7 8 7 9 11 13 13 12 13 12 11 11 10 11 11 10 9 8 8 8 7 6 5 5 6 8 8 9 9 8 9 9 9 9
9 10 11 4 6 7 7 4 5 7 8 9 10 11 12 12 12 12 12 12 11 11 11 10 10 9 9 9 8 8 7 6 4 4 4 5 6 7 8 8 9 9 8 8
10 10 6 5 8 8 7 8 8 8 9 10 11 12 12 12 12 12 12 12 11 11 11 10 9 9 10 10 8 7 6 5 4 3 4 5 6 7 7 8 7 7 7 7
9 13 13 12 12 11 10 11 11 10 10 11 12 12 12 12 11 11 12 11 11 11 11 11 10 9 9 9 8 7 6 5 3 3 2 3 4 5 6 7 8 7 8 8
14 15 14 14 13 12 11 10 10 10 10 10 11 12 12 12 12 11 11 11 10 10 11 12 11 10 10 9 7 6 5 4 3 2 2 2 2 3 5 5 7 8 8 8
13 12 11 11 10 10 11 11 11 11 11 10 10 12 12 12 11 11 11 10 10 10 11 12 11 11 10 9 7 6 4 4 3 2 2 2 2 1 1 2 5 5 6 7
16 14 14 14 13 12 12 11 10 10 11 11 10 10 11 11 10 10 10 10 10 11 11 11 11 10 9 8 7 6 5 4 3 2 2 2 2 3 2 3 5 6 7 7
14 13 13 13 12 11 10 10 10 10 10 10 9 9 9 9 9 10 10 10 10 11 10 10 10 10 9 8 7 6 5 4 4 3 3 3 3 3 3 3 3 3 5 9
13 12 12 10 9 9 8 8 9 9 9 9 8 8 9 9 10 10 10 10 10 10 10 9 10 10 9 8 7 6 4 3 3 3 3 3 3 3 3 3 3 4 4 6
9 9 10 10 10 9 8 8 9 10 9 9 8 8 9 9 10 10 9 9 9 10 10 10 10 10 9 8 8 5 4 4 4 3 3 3 4 4 4 4 4 5 6 6
8 8 8 9 9 9 8 8 8 9 8 9 9 9 9 9 9 10 9 9 9 10 10 10 11 10 9 8 7 5 3 3 3 3 3 3 4 4 4 4 4 5 5 6
9 9 8 8 8 8 8 7 7 8 8 8 8 8 8 9 10 10 10 10 10 10 9 9 10 9 8 8 6 5 3 3 3 3 3 3 3 4 4 4 5 6 5 6
5 5 5 5 5 5 6 6 7 7 7 7 8 9 9 9 9 10 10 9 10 10 9 9 12 9 8 7 7 4 4 3 3 3 3 4 4 4 4 5 5 5 5 5
3 3 3 3 4 4 5 6 7 7 7 7 8 9 9 9 9 9 9 9 8 8 10 11 10 8 8 7 7 4 4 4 4 4 4 4 4 4 5 5 6 6 5 5
3 3 3 3 4 5 6 6 7 7 8 7 8 9 9 10 9 8 8 9 9 9 9 11 8 7 6 6 5 3 3 3 4 5 5 5 5 5 5 5 5 6 6 6
3 3 4 4 5 6 6 6 6 7 8 7 8 8 9 9 9 8 9 8 9 10 8 7 6 7 7 7 4 3 3 3 4 4 5 5 5 5 6 6 6 6 6 6
3 4 4 5 5 6 7 6 6 7 7 7 7 8 8 8 7 7 8 7 7 9 8 7 8 9 8 5 3 3 3 3 4 4 5 5 5 6 6 6 6 6 6 6
3 4 4 4 4 5 6 7 6 6 6 7 7 7 8 7 7 6 7 9 11 11 7 8 10 9 7 4 3 3 3 3 4 4 5 5 5 6 6 6 6 6 6 7
3 3 4 4 4 5 6 6 6 6 6 5 6 7 6 6 6 7 7 8 10 10 7 8 9 9 5 3 3 3 3 3 4 4 5 6 6 6 6 6 6 6 6 6
3 4 4 5 5 5 5 5 5 5 5 5 6 5 5 5 6 7 6 7 9 9 7 6 6 6 4 3 3 3 3 3 4 4 5 6 7 7 6 6 7 7 6 6
3 3 3 4 4 4 4 4 5 5 5 6 6 6 6 6 6 6 7 6 6 5 5 5 4 4 4 3 3 3 3 3 4 4 5 5 6 6 7 7 6 6 7 7
Wind_Direction
263 273 275 271 274 268 255 255 264 278 284 297 311 315 319 322 327 332 337 342 344 344 344 342 341 337 329 321 310 274 247 231 219 219 215 206 204 202 198 196 197 195 196 197
270 270 272 272 270 264 258 255 258 271 277 293 305 307 311 316 322 328 333 335 336 339 339 338 337 336 332 321 313 294 257 240 227 220 214 206 202 199 197 197 197 195 195 197
273 284 284 266 257 251 250 250 254 265 278 301 307 308 309 313 318 321 324 325 328 331 331 331 329 328 326 321 310 296 271 250 233 219 212 206 199 197 195 195 195 195 196 197
274 283 257 261 230 245 256 257 252 259 279 295 301 303 299 302 312 317 320 320 322 324 324 323 322 321 321 319 316 304 287 261 242 224 215 207 200 199 198 195 195 197 197 197
250 261 271 270 245 232 248 265 247 256 279 295 305 303 294 306 316 315 315 313 314 316 317 317 320 319 318 319 319 309 298 280 263 235 216 208 202 200 198 195 197 199 196 194
236 252 261 266 192 199 242 261 238 254 279 296 307 300 307 326 321 316 315 312 311 314 315 316 318 318 314 316 316 306 298 288 270 245 222 212 207 201 197 196 196 195 193 192
235 246 262 266 203 180 232 267 266 264 278 288 283 284 302 310 310 311 312 313 314 313 314 315 317 315 310 313 309 304 298 289 273 250 229 216 207 200 194 191 188 187 187 187
220 235 251 202 181 216 255 293 275 275 279 284 286 290 297 303 306 309 311 313 315 313 312 314 317 314 308 307 305 305 299 288 277 257 239 221 204 196 189 184 183 181 180 180
216 234 264 209 227 251 270 271 276 278 284 286 287 289 295 298 302 305 308 310 312 311 309 312 314 311 304 306 307 303 299 287 277 265 234 214 201 191 185 182 181 178 178 178
243 253 256 255 258 259 261 269 277 280 284 283 283 288 292 295 298 301 304 307 310 310 308 310 312 309 302 303 303 295 290 288 277 259 238 208 196 188 186 185 180 177 177 177
249 261 269 262 255 257 266 271 273 277 279 280 282 284 288 291 294 297 301 304 305 304 304 306 309 307 307 306 300 289 280 276 264 249 232 207 198 198 195 199 188 181 182 178
250 255 255 267 266 267 269 269 274 281 283 282 280 282 285 287 289 292 295 300 302 301 301 304 308 307 308 306 296 281 273 268 250 226 223 206 177 118 67 157 146 157 168 171
252 265 267 271 273 271 269 271 275 275 277 282 283 283 284 286 288 290 292 296 298 299 300 303 306 305 307 307 297 277 265 263 247 218 209 201 185 167 137 74 95 126 137 145
249 257 263 264 267 269 267 269 275 276 277 278 281 284 283 285 288 289 291 295 297 297 298 301 304 305 309 309 299 281 268 260 242 218 203 200 190 174 166 158 147 127 122 139
245 245 254 267 268 268 268 269 273 276 279 281 281 281 283 286 289 292 295 297 297 296 297 301 303 304 309 307 298 282 270 257 236 213 203 194 177 161 157 159 157 148 132 131
244 246 250 254 258 264 267 267 270 275 279 284 285 285 286 286 289 292 296 298 297 297 298 300 299 300 304 301 296 281 268 254 237 210 197 185 169 160 159 160 158 156 151 147
234 240 244 251 258 263 264 266 269 275 281 284 287 289 290 289 290 293 297 298 292 290 292 295 297 300 299 294 289 275 261 246 222 207 197 187 173 165 164 163 157 150 148 149
238 245 246 251 256 261 267 270 272 276 279 285 291 291 289 289 291 295 299 301 298 294 293 298 301 301 297 291 287 269 249 240 217 197 184 179 172 160 152 152 150 145 140 137
230 241 251 254 255 257 263 270 274 279 284 286 288 286 286 286 288 292 296 297 295 295 299 304 305 301 296 290 286 263 240 231 206 186 169 166 163 156 151 150 148 146 145 142
223 234 244 256 264 267 270 276 280 282 284 285 286 286 287 288 289 291 291 286 281 284 295 300 300 297 292 289 283 256 231 217 194 179 170 167 166 160 153 150 148 147 146 144
226 237 249 262 275 280 278 280 281 283 286 285 283 283 286 289 290 289 288 286 288 294 297 297 296 294 292 291 279 251 224 211 193 182 174 170 166 160 156 151 150 148 145 142
238 248 261 271 277 282 285 284 281 282 285 285 283 283 285 288 289 286 277 275 287 298 299 292 293 293 297 294 277 248 220 205 191 182 173 171 166 162 158 155 153 150 147 145
247 256 265 271 277 286 291 288 283 281 281 283 284 284 283 284 285 284 287 287 292 299 299 289 293 295 294 287 274 252 220 199 188 181 173 171 167 163 161 159 154 152 150 147
261 266 273 280 284 285 289 293 292 288 284 283 279 277 278 282 283 276 278 291 298 298 293 293 298 295 289 277 263 249 225 201 187 178 169 165 161 160 162 159 153 151 150 148
269 273 274 274 277 282 289 294 296 293 290 288 287 283 278 273 275 285 289 292 296 297 294 295 296 294 285 270 250 235 221 203 183 171 163 160 159 159 160 159 154 151 151 151
270 272 273 274 275 281 287 290 291 294 296 296 297 295 291 286 283 284 285 288 289 290 290 288 289 285 274 259 239 220 203 189 180 171 162 158 157 158 158 158 153 152 152 153
278 278 278 281 281 278 280 283 285 289 290 290 294 298 297 295 293 292 291 289 289 287 285 282 278 273 265 250 228 208 188 176 169 164 160 160 161 160 159 156 154 151 151 153
Height
1448 1444 1444 1441 1438 1437 1437 1432 1426 1415 1412 1408 1408 1406 1404 1401 1397 1394 1390 1386 1383 1380 1376 1373 1370 1368 1366 1365 1366 1367 1369 1370 1373 1377 1382 1387 1392 1396 1401 1406 1411 1416 1421 1426
1444 1439 1437 1433 1428 1427 1425 1423 1420 1416 1411 1408 1407 1405 1402 1400 1396 1393 1389 1386 1383 1379 1376 1372 1369 1366 1364 1364 1364 1364 1365 1366 1369 1373 1377 1381 1386 1390 1395 1400 1405 1410 1415 1420
1437 1433 1433 1424 1419 1418 1417 1415 1416 1411 1408 1406 1404 1402 1400 1398 1395 1392 1389 1385 1382 1378 1375 1371 1368 1366 1363 1362 1362 1362 1362 1363 1366 1369 1372 1376 1381 1386 1390 1395 1399 1404 1409 1414
1439 1436 1433 1413 1414 1415 1414 1411 1411 1409 1407 1405 1403 1401 1398 1396 1393 1390 1387 1384 1380 1377 1373 1370 1367 1364 1362 1360 1359 1359 1359 1361 1363 1365 1368 1371 1376 1381 1385 1390 1394 1399 1403 1408
1438 1430 1416 1410 1410 1412 1412 1407 1405 1405 1404 1402 1401 1397 1394 1393 1391 1389 1386 1383 1379 1375 1371 1368 1365 1362 1360 1358 1356 1356 1356 1357 1359 1361 1364 1368 1371 1375 1380 1384 1389 1394 1398 1403
1435 1431 1416 1403 1407 1409 1411 1404 1401 1401 1401 1400 1398 1394 1390 1390 1388 1386 1383 1380 1376 1373 1369 1366 1363 1360 1358 1355 1354 1353 1353 1354 1356 1358 1360 1363 1367 1371 1376 1380 1385 1389 1394 1398
1429 1424 1408 1403 1406 1409 1408 1399 1399 1399 1398 1398 1396 1394 1391 1388 1385 1382 1380 1376 1373 1370 1366 1364 1361 1358 1355 1353 1352 1352 1352 1352 1353 1354 1357 1360 1364 1368 1372 1376 1380 1385 1389 1393
1422 1419 1408 1400 1404 1403 1398 1398 1397 1396 1396 1395 1393 1390 1388 1385 1382 1379 1376 1373 1370 1367 1363 1361 1359 1356 1353 1352 1351 1350 1349 1349 1350 1351 1354 1357 1360 1364 1368 1372 1376 1380 1385 1389
1408 1401 1396 1398 1397 1397 1397 1396 1394 1393 1392 1391 1389 1386 1384 1381 1379 1376 1373 1369 1367 1364 1360 1358 1356 1354 1351 1349 1348 1347 1347 1347 1347 1349 1351 1353 1356 1360 1364 1368 1372 1376 1380 1384
1403 1395 1394 1394 1394 1393 1393 1392 1391 1390 1389 1387 1385 1382 1380 1377 1374 1372 1369 1366 1363 1360 1357 1354 1352 1351 1349 1347 1346 1345 1344 1344 1345 1346 1347 1350 1353 1356 1360 1364 1367 1371 1375 1380
1394 1390 1390 1388 1389 1388 1388 1387 1386 1385 1384 1382 1380 1378 1375 1373 1370 1367 1365 1362 1359 1356 1353 1351 1349 1347 1346 1344 1343 1342 1342 1342 1343 1343 1345 1347 1350 1353 1357 1360 1363 1367 1371 1375
1384 1383 1384 1382 1383 1383 1382 1381 1381 1379 1378 1376 1375 1373 1371 1368 1365 1363 1360 1358 1355 1353 1350 1347 1345 1343 1342 1341 1341 1340 1340 1340 1340 1341 1343 1345 1347 1350 1354 1357 1360 1364 1369 1373
1379 1379 1379 1378 1378 1378 1377 1376 1375 1374 1373 1371 1369 1368 1365 1363 1361 1358 1356 1354 1352 1349 1346 1344 1342 1340 1339 1338 1337 1337 1337 1337 1338 1339 1340 1342 1344 1347 1350 1354 1358 1362 1365 1369
1374 1375 1373 1373 1373 1372 1371 1371 1370 1368 1367 1366 1364 1362 1360 1358 1356 1354 1352 1350 1347 1345 1343 1340 1338 1337 1336 1334 1334 1333 1333 1334 1335 1336 1338 1340 1342 1344 1347 1350 1354 1358 1362 1366
1368 1369 1368 1367 1367 1367 1366 1365 1364 1363 1362 1360 1359 1357 1355 1353 1351 1350 1348 1346 1343 1341 1338 1337 1335 1333 1332 1331 1330 1330 1330 1330 1332 1334 1335 1337 1339 1342 1345 1348 1352 1355 1359 1364
1362 1362 1363 1362 1362 1361 1361 1360 1359 1358 1357 1355 1354 1352 1350 1349 1347 1345 1343 1341 1339 1336 1334 1333 1331 1330 1329 1328 1327 1327 1327 1328 1329 1331 1332 1334 1337 1339 1342 1346 1349 1353 1356 1360
1357 1357 1357 1357 1357 1356 1356 1355 1354 1353 1352 1350 1349 1347 1346 1344 1342 1340 1338 1337 1334 1332 1331 1329 1327 1326 1325 1324 1324 1324 1324 1325 1326 1328 1329 1331 1333 1336 1340 1343 1347 1350 1354 1359
1352 1352 1352 1352 1352 1351 1351 1350 1349 1348 1347 1346 1344 1343 1341 1339 1337 1335 1333 1332 1330 1328 1326 1325 1323 1322 1321 1320 1320 1320 1321 1321 1323 1324 1326 1328 1331 1334 1338 1341 1345 1349 1353 1358
1347 1348 1348 1348 1348 1347 1347 1346 1345 1344 1342 1341 1339 1338 1336 1334 1332 1331 1329 1327 1324 1322 1321 1321 1319 1318 1317 1316 1316 1316 1317 1318 1319 1321 1324 1326 1330 1333 1336 1340 1343 1347 1351 1355
1344 1344 1344 1344 1344 1344 1343 1342 1341 1339 1338 1336 1334 1332 1330 1329 1328 1326 1324 1322 1320 1319 1318 1317 1315 1314 1313 1312 1313 1313 1314 1315 1317 1319 1322 1325 1328 1331 1335 1338 1342 1346 1349 1353
1342 1342 1341 1341 1340 1340 1339 1338 1336 1335 1333 1331 1330 1327 1326 1324 1323 1321 1319 1317 1316 1315 1314 1312 1311 1311 1310 1309 1310 1310 1311 1312 1314 1316 1319 1323 1326 1329 1333 1336 1340 1344 1348 1352
1339 1338 1338 1337 1336 1335 1334 1333 1332 1330 1328 1326 1325 1323 1321 1319 1318 1316 1315 1314 1312 1311 1310 1308 1308 1307 1307 1307 1307 1308 1309 1310 1312 1315 1318 1321 1324 1327 1331 1335 1338 1342 1346 1350
1336 1335 1335 1334 1333 1331 1330 1329 1327 1325 1323 1322 1320 1318 1317 1315 1314 1312 1310 1309 1308 1307 1306 1305 1304 1304 1304 1304 1305 1305 1306 1308 1310 1313 1316 1319 1322 1326 1329 1333 1337 1340 1344 1348
1332 1332 1331 1330 1329 1327 1326 1324 1323 1321 1319 1317 1316 1314 1312 1310 1309 1308 1306 1305 1304 1303 1302 1301 1301 1301 1301 1302 1302 1303 1304 1306 1308 1311 1314 1317 1321 1324 1327 1331 1335 1339 1343 1347
1329 1328 1327 1326 1325 1323 1322 1320 1318 1316 1315 1313 1311 1310 1308 1307 1305 1303 1302 1300 1299 1299 1298 1297 1297 1298 1298 1298 1299 1301 1302 1304 1306 1309 1312 1315 1318 1322 1326 1329 1333 1337 1341 1346
1326 1325 1324 1322 1321 1320 1318 1316 1314 1312 1311 1308 1307 1305 1304 1302 1300 1299 1297 1296 1295 1295 1294 1294 1294 1294 1295 1296 1297 1298 1300 1302 1304 1307 1310 1313 1317 1320 1324 1328 1332 1336 1340 1344
1322 1321 1320 1319 1317 1316 1314 1312 1311 1309 1307 1305 1303 1301 1300 1298 1296 1295 1293 1292 1292 1291 1291 1290 1291 1291 1292 1293 1295 1296 1298 1300 1302 1305 1308 1311 1315 1319 1323 1327 1331 1335 1339 1343